Regional Weather Roundup
Issued by NWS

Home | Current Version | Previous Version | Graphics & Text | Print | Product List | Glossary On
Versions: 1 2 3 4 5 6 7 8 9 10 11 12 13 14 15 16 17 18 19 20 21 22 23 24 25 26 27 28 29 30 31 32 33 34 35 36 37 38 39 40 41 42 43 44 45 46 47 48 49 50
000
ASUS45 KBOU 210010
RWRCO

WEATHER ROUNDUP FOR COLORADO
NATIONAL WEATHER SERVICE DENVER/BOULDER CO
500 PM MST TUE FEB 20 2018

NOTE: "FAIR" INDICATES FEW OR NO CLOUDS BELOW 12000 FEET WITH NO
SIGNIFICANT WEATHER AND/OR OBSTRUCTIONS TO VISIBILITY.

COZ001>005-013-030-031-210100-
...NORTHWEST COLORADO...

CITY           SKY/WX    TMP DP  RH WIND       PRES   REMARKS
CRAIG          CLOUDY    13   5  70 S6        30.01R WCI   4
HAYDEN         NOT AVBL
MEEKER         FAIR      20   2  45 VRB7      29.99R WCI  11
RANGELY        FAIR      24   3  42 CALM      30.04R
RABBIT EARS PA LGT SNOW   1  -4  78 W10G17    29.77R WCI -14
STEAMBOAT SPGS FAIR      14   2  58 S6        29.97R WCI   5
WALDEN         FAIR      12  -6  44 SW14      29.89R WCI  -3
$$

COZ006>008-011-210100-
...WEST CENTRAL VALLEYS...

CITY           SKY/WX    TMP DP  RH WIND       PRES   REMARKS
GRAND JUNCTION FAIR      31  12  45 N6        30.03R WCI  25
MONTROSE       SNOW      21  19  92 NW6       30.06R VSB 1/2 WCI  13
EAGLE          CLOUDY    21   7  54 SW14      29.99R WCI   8
RIFLE          FAIR      27   7  42 NW10      30.00R WCI  17
DELTA          LGT SNOW  29  16  57 W9        30.04R WCI  21
NUCLA          FLURRIES  28  14  54 NW7       30.06R WCI  21
$$

COZ017>023-064>068-210100-
...SOUTHWEST COLORADO...

CITY           SKY/WX    TMP DP  RH WIND       PRES   REMARKS
DURANGO        FAIR      25   9  50 NW8       29.99R WCI  16
CORTEZ         CLOUDY    28   8  43 S6        30.02R WCI  22
PAGOSA SPRINGS CLOUDY    22   7  52 S10       29.98R WCI  11
TELLURIDE      CLOUDY    14   4  63 CALM      29.92R
WOLF CREEK PAS CLOUDY     0  -4  85 SW17G32   29.85R WCI -21
$$

COZ009-010-012-014-032>034-037-058>063-210100-
...CENTRAL COLORADO...

CITY           SKY/WX    TMP DP  RH WIND       PRES   REMARKS
ASPEN          MOCLDY    14   8  77 N6        29.92R WCI   5
BUENA VISTA    CLOUDY    21  -2  36 W7        29.88R WCI  13
COPPER MTN     MOCLDY     3  -9  55 W14G24    29.73R WCI -15
BERTHOUD PASS  MOCLDY    -6 -15  65 W6G30     29.70R WCI -18
COTTONWOOD PAS CLOUDY    18   0  45 W8        29.82R WCI   7
GUNNISON       FAIR      19   1  45 W13       29.92R WCI   6
GRANBY         CLOUDY    12   6  78 W3        29.89R HAZE
KREMMLING      LGT SNOW  21  12  68 CALM      29.94R
LEADVILLE      FAIR       8 -10  43 SW15G23   29.80R WCI  -9
MONARCH PASS   FAIR       1  -2  85 W18G29    29.86R FOG     WCI -19
SALIDA         FAIR      25   1  34 W10       29.97R WCI  15
SUNLIGHT       LGT SNOW   3   0  85 SW5       29.86R VSB 1   WCI  -6
WILKERSON PASS FAIR       9  -6  52 SW15G21   29.78S WCI  -8
$$

COZ069>075-210100-
...SAN LUIS VALLEY/SANGRE DE CRISTO MOUNTAINS...

CITY           SKY/WX    TMP DP  RH WIND       PRES   REMARKS
ALAMOSA        FAIR      25   0  33 S18       29.93R WCI  11
DEL NORTE      FAIR      22   1  40 SW17G25   29.92R WCI   8
LA VETA PASS   FAIR      16   0  48 S24G48    29.93R WCI  -3
SAGUACHE       FAIR      23   5  46 NW14      29.90R WCI  11
$$

COZ035-036-038>040-210100-
...NORTHERN COLORADO FRONT RANGE...

CITY           SKY/WX    TMP DP  RH WIND       PRES   REMARKS
DENVER INTL AP MOCLDY    13   5  70 SE6       30.01R WCI   4
AURORA         PTCLDY    10   5  80 E5        30.01R WCI   2
FRONT RANGE AP MOCLDY    14   7  73 SE6       30.03R WCI   5
ERIE MUNI ARPT FAIR      12   4  70 CALM      30.10R
BOULDER MUN AP MOCLDY    12   5  73 N3        30.03R
CENTENNIAL     FAIR      15   7  70 N6        29.98R WCI   6
BROOMFIELD     CLOUDY    12   7  79 CALM      30.00R
FORT COLLINS   FAIR      12   1  61 CALM      30.07R
LONGMONT       CLOUDY    16   4  59 CALM      30.07R
$$

COZ041-046-047-076>085-087-088-210100-
...PIKES PEAK/PALMER DIVIDE AND SOUTHERN FOOTHILLS...

CITY           SKY/WX    TMP DP  RH WIND       PRES   REMARKS
COLO. SPRINGS  MOCLDY    19  13  77 SE9       29.98R WCI   8
A. F. ACADEMY  CLOUDY    19  12  75 S6        29.94R WCI  11
SCHRIEVER AFB  NOT AVBL
CHEYENNE MTN   FLURRIES  14  14 100 SE9       29.89R WCI   2
ELLICOTT         N/A    N/A N/A N/A S12       29.97R
FALCON         FLURRIES  17  12  80 S5        29.96R WCI  10
FORT CARSON    CLOUDY    19  13  76 S9        29.98R WCI   9
LIMON          FAIR      14   7  73 E8        30.04R WCI   3
MONUMENT HILL  LGT SNOW  18  12  79 N3        29.94R
CANON CITY     CLEAR     25  16  68 E7        29.99R WCI  17
WALSENBURG     NOT AVBL
TRINIDAD       FAIR      27  11  51 NE13      29.96R WCI  16
$$

COZ042>045-048>051-090-091-210100-
...NORTHEAST COLORADO...

CITY           SKY/WX    TMP DP  RH WIND       PRES   REMARKS
GREELEY ARPT   FAIR       7  -2  66 N6        30.10  WCI  -3
AKRON          FAIR      10   0  63 N6        30.08R WCI   0
BURLINGTON     FAIR      14   2  58 NE7       30.13R WCI   4
WRAY           FAIR      18   1  49 N8        30.17R WCI   7
YUMA           NOT AVBL
STERLING       MOCLDY    14   3  62 N5        30.12R WCI   6
HOLYOKE        FAIR      18   1  49 N9        30.15R WCI   6
FORT MORGAN    CLOUDY    12  -1  56 W6        30.10R WCI   2
$$

COZ086-089-092>099-210100-
...SOUTHEAST COLORADO...

CITY           SKY/WX    TMP DP  RH WIND       PRES   REMARKS
PUEBLO         FAIR      22  11  62 E12       30.05R WCI  10
LA JUNTA       MOCLDY    24   8  50 E12       30.09R WCI  13
LAMAR          CLOUDY    24   6  46 NE13      30.11R WCI  12
SPRINGFIELD      N/A     24   3  40 NE16      30.07R WCI  11
$$



USA.gov is the U.S. government's official web portal to all federal, state and local government web resources and services.